Regional Weather Roundup
Issued by NWS

Home | Current Version | Previous Version | Text Only | Print | Product List | Glossary Off
Versions: 1 2 3 4 5 6 7 8 9 10 11 12 13 14 15 16 17 18 19 20 21 22 23 24 25 26 27 28 29 30 31 32 33 34 35 36 37 38 39 40 41 42 43 44 45 46 47 48 49 50

000
ASUS43 KFSD 210102
RWRSD

WEATHER ROUNDUP FOR SOUTH DAKOTA
NATIONAL WEATHER SERVICE SIOUX FALLS SD
700 PM CST THU NOV 20 2014

NOTE: "FAIR" INDICATES FEW OR NO CLOUDS BELOW 12,000 FEET WITH NO
SIGNIFICANT WEATHER AND/OR OBSTRUCTIONS TO VISIBILITY.


SDZ001>005-009-010-012>017-210200-
NORTHWEST AND NORTH CENTRAL SOUTH DAKOTA

CITY           SKY/WX    TMP DP  RH WIND       PRES   REMARKS
BUFFALO          N/A     26  20  77 S14       29.80F WCI  14
FAITH            N/A     17  13  84 S20       29.93F WCI   1
MOBRIDGE       CLOUDY    23  18  81 S17       29.99F WCI   9
$$

SDZ012>016-024>037-041>051-057-063-072>074-210200-
SOUTHWEST AND SOUTH CENTRAL SOUTH DAKOTA

CITY           SKY/WX    TMP DP  RH WIND       PRES   REMARKS
RAPID CTY ARPT CLEAR     20  16  84 CALM      29.92S
PIERRE         PTCLDY    19  15  84 SE12      30.05F WCI   7
CUSTER         PTCLDY    33  17  51 CALM      29.90R
ELLSWORTH AFB  PTCLDY    24  19  81 S8        29.90F WCI  15
PHILIP         MOCLDY    16  13  88 E7        29.98F WCI   6
PINE RIDGE     CLEAR     25  20  81 NW3       29.92S
WINNER         FAIR      21  15  78 SE15      30.05F WCI   8
$$

SDZ004>011-016>023-039-040-210200-
NORTHEAST SOUTH DAKOTA

CITY           SKY/WX    TMP DP  RH WIND       PRES   REMARKS
ABERDEEN       MOCLDY     4  -1  80 S9        30.13S WCI -10
WATERTOWN      MOCLDY     8   4  83 CALM      30.11F
SISSETON         N/A      6   2  83 S3        30.15S
$$

SDZ017-020-022-023-036>040-048>070-210200-
SOUTHEAST SOUTH DAKOTA

CITY           SKY/WX    TMP DP  RH WIND       PRES   REMARKS
SIOUX FALLS    PTCLDY     9   4  80 CALM      30.17S
HURON          PTCLDY    11   5  77 SE7       30.15S WCI   0
CHAMBERLAIN    PTCLDY    16  13  88 SE7       30.10S WCI   6
MITCHELL       MOCLDY    14   9  80 S6        30.17S WCI   5
YANKTON        CLOUDY    19  14  79 E5        30.20S WCI  13
$$

ABBREVIATIONS USED IN REMARKS
   TC - TEMPERATURE IN CELSIUS
  WCI - WIND CHILL INDEX
   HX - HEAT INDEX
  VSB - VISIBILITY




USA.gov is the U.S. government's official web portal to all federal, state and local government web resources and services.